OPS 4682 DEB, 1316

Orbit data source: Space-Track

OPS 4682 DEB, 1316 is space debris in LEO originally from a launch on Sat, 03 Apr 1965 UTC launched from the Air Force Western Test Range (AFWTR). Debris objects in space refer to the collection of defunct objects orbiting the Earth. Examples of debris include non-operational satellites, rocket bodies, and fragments generated from explosions, collisions, or faulty payload assembly.

Loading next visibility...
Identifier
1316, 1965-027C
Orbit
LEO
Last TLE update
15 hours ago
Origin
Manufacturer
Unknown
Mission
Spacecraft
Bus & Motor
Unknown
Mass
7 kg wet, 7 kg dry
Launch date (UTC)
1965-04-03 (60 years ago)
Launch vehicle
Unknown
Launch site
Air Force Western Test Range (AFWTR)
Object type
Payload
Rocket body
Debris
Shape & HBR
Half Cyl, 2 m
Radar Cross Section
2.370 m², Medium (>0.1 m² and < 1m²)

Expand to show TLE details & history

TLE from 15 hours ago
0 OPS 4682 DEB
1 01316U 65027C   25182.58716807  .00000575  00000-0  13650-2 0  9995
2 01316  90.2511  18.8702 0036495  67.6589 292.8407 13.21906946872678
Epoch: 2025-07-01T14:05Z
TLE epoch observation values (Epoch: 2025-07-01T14:05:31.321Z)
Latitude
-0.00005°
Longitude
-112.39079°
Altitude
1,169.737 km
Speed
7.274 km/s
True Right ascension
01h 15m 28s
True Declination
0° 00' 00"
Sunlit
Object was in daylight at epoch
Visualization orbit readout
Latitude
15.76248°
Longitude
-112.44663°
Altitude
1,161.975 km
Speed
7.282 km/s
Apparent Right ascension
02h 30m 07s
Apparent Declination
-10° 18' 23"
Sunlit
Object is in daylight
Visualization observer readout
Local Sidereal Time
16:23:40
Azimuth
48.203° ENE
Elevation
-51.139°
Doppler factor
1
Orbital elements
Apogee altitude
1,202.099 km
Perigee altitude
1,146.973 km
Semi-major axis
7,552.673 km
Eccentricity
0.00365
Inclination
90.2511°
RAAN
18.8702°
Arg. of periapsis
67.6589°
True anomaly
Unknown
Mean anomaly
292.8407°
Eccentric anomaly
Unknown
Mean motion
3.30668 °/min
Orbital period
108.87 mins
BSTAR
0.001365
Loading maneuver chart data...
Loading SW <> Apogee altitude chart data...
Loading historical data...
Loading historical data...
Loading historical data...
Loading historical data...
Loading historical data...
Loading historical data...
Loading historical data...

OPS 4682 DEB Visibility forecast

Observer location: undefined°, undefined°

Span
Click to sort rows by Start time (UTC) header in descending order
Start Az.
Max El. time (UTC)
Max El. Az.
Max El.
End time (UTC)
End Az.
9 mins2025-07-02 12:02:13.149Z113.362° SE2025-07-02 12:06:13.149Z74.21° E20.477°2025-07-02 12:11:13.149Z26.847° NE
12 mins2025-07-02 13:49:13.149Z192.945° SSW2025-07-02 13:54:13.149Z261.091° W41.685°2025-07-02 14:01:13.149Z350.907° N
12 mins2025-07-03 01:13:13.149Z8.272° NNE2025-07-03 01:18:13.149Z63.044° ENE43.589°2025-07-03 01:25:13.149Z176.258° S
7 mins2025-07-03 03:03:13.149Z321.025° NNW2025-07-03 03:06:13.149Z292.313° WNW17.89°2025-07-03 03:10:13.149Z254.314° W
|